• In Germany
  • List of Countries
  • For 7 days
  • Water Temperature
  • Satellite Maps
  • Weather Map
  • Weather Widgets
  • user-avatar
    Login

    Hourly Weather La Rioja

    Today, 26 June, Monday

    Time Temperature Precipitation Wind Pressure Humidity
    00:00 +18°C° 0 mm 2 mps 708 mmHg 62%
    01:00 +18°C° 0 mm 2 mps 708 mmHg 62%
    02:00 +18°C° 0 mm 3 mps 708 mmHg 61%
    03:00 +17°C° 0 mm 3 mps 708 mmHg 63%
    04:00 +17°C° 0 mm 3 mps 708 mmHg 65%
    05:00 +16°C° 0 mm 3 mps 708 mmHg 66%
    06:00 +16°C° 0 mm 3 mps 708 mmHg 68%
    07:00 +16°C° 0 mm 3 mps 708 mmHg 69%
    08:00 +16°C° 0 mm 3 mps 708 mmHg 71%
    09:00 +18°C° 0 mm 3 mps 708 mmHg 67%
    10:00 +20°C° 0 mm 4 mps 709 mmHg 63%
    11:00 +22°C° 0 mm 4 mps 709 mmHg 59%
    12:00 +22°C° 0 mm 4 mps 708 mmHg 58%
    13:00 +23°C° 0 mm 4 mps 708 mmHg 56%
    14:00 +23°C° 0 mm 4 mps 707 mmHg 55%
    15:00 +23°C° 0 mm 4 mps 707 mmHg 59%
    16:00 +22°C° 0 mm 4 mps 707 mmHg 62%
    17:00 +21°C° 0 mm 4 mps 707 mmHg 66%
    18:00 +20°C° 0 mm 4 mps 708 mmHg 70%
    19:00 +19°C° 0 mm 4 mps 709 mmHg 74%
    20:00 +18°C° 0 mm 3 mps 709 mmHg 78%
    21:00 +17°C° 0 mm 3 mps 710 mmHg 79%
    22:00 +17°C° 0 mm 3 mps 710 mmHg 79%
    23:00 +16°C° 0 mm 3 mps 711 mmHg 79%

    Tomorrow, 27 June, Tuesday

    Time Temperature Precipitation Wind Pressure Humidity
    00:00 +16°C° 0 mm 3 mps 711 mmHg 79%
    01:00 +14°C° 0 mm 3 mps 712 mmHg 79%
    02:00 +14°C° 0 mm 3 mps 712 mmHg 78%
    03:00 +14°C° 0 mm 3 mps 712 mmHg 77%
    04:00 +13°C° 0 mm 3 mps 712 mmHg 77%
    05:00 +13°C° 0 mm 3 mps 713 mmHg 76%
    06:00 +13°C° 0 mm 3 mps 713 mmHg 75%
    07:00 +12°C° 0 mm 3 mps 714 mmHg 75%
    08:00 +12°C° 0 mm 3 mps 715 mmHg 75%
    09:00 +14°C° 0 mm 3 mps 715 mmHg 68%
    10:00 +15°C° 0 mm 4 mps 716 mmHg 60%
    11:00 +18°C° 0 mm 4 mps 717 mmHg 53%
    12:00 +17°C° 0 mm 5 mps 716 mmHg 50%
    13:00 +19°C° 0 mm 5 mps 716 mmHg 47%
    14:00 +20°C° 0 mm 6 mps 715 mmHg 43%
    15:00 +19°C° 0 mm 5 mps 716 mmHg 46%
    16:00 +17°C° 0 mm 5 mps 716 mmHg 48%
    17:00 +17°C° 0 mm 5 mps 716 mmHg 51%
    18:00 +15°C° 0 mm 4 mps 717 mmHg 56%
    19:00 +14°C° 0 mm 4 mps 717 mmHg 61%
    20:00 +13°C° 0 mm 3 mps 718 mmHg 66%
    21:00 +12°C° 0 mm 3 mps 718 mmHg 68%
    22:00 +12°C° 0 mm 3 mps 719 mmHg 69%
    23:00 +11°C° 0 mm 3 mps 719 mmHg 71%

    Day after tomorrow, 28 June, Wednesday

    Time Temperature Precipitation Wind Pressure Humidity
    00:00 +11°C° 0 mm 3 mps 719 mmHg 72%
    01:00 +10°C° 0 mm 3 mps 719 mmHg 73%
    02:00 +10°C° 0 mm 3 mps 719 mmHg 75%
    03:00 +10°C° 0 mm 2 mps 718 mmHg 75%
    04:00 +9°C° 0 mm 2 mps 718 mmHg 76%
    05:00 +9°C° 0 mm 2 mps 717 mmHg 77%
    06:00 +9°C° 0 mm 2 mps 718 mmHg 76%
    07:00 +9°C° 0 mm 2 mps 718 mmHg 75%
    08:00 +9°C° 0 mm 2 mps 718 mmHg 74%
    09:00 +12°C° 0 mm 2 mps 718 mmHg 65%
    10:00 +14°C° 0 mm 2 mps 718 mmHg 56%
    11:00 +16°C° 0 mm 2 mps 718 mmHg 48%
    12:00 +17°C° 0 mm 2 mps 717 mmHg 44%
    13:00 +18°C° 0 mm 2 mps 716 mmHg 41%
    14:00 +18°C° 0 mm 2 mps 715 mmHg 37%
    15:00 +18°C° 0 mm 2 mps 715 mmHg 39%
    16:00 +17°C° 0 mm 2 mps 715 mmHg 40%
    17:00 +17°C° 0 mm 2 mps 715 mmHg 42%
    18:00 +15°C° 0 mm 2 mps 715 mmHg 47%
    19:00 +14°C° 0 mm 1 mps 715 mmHg 53%
    20:00 +12°C° 0 mm 1 mps 716 mmHg 58%
    21:00 +12°C° 0 mm 1 mps 716 mmHg 60%
    22:00 +11°C° 0 mm 1 mps 716 mmHg 62%
    23:00 +11°C° 0 mm 1 mps 716 mmHg 64%

    29 June, Thursday

    Time Temperature Precipitation Wind Pressure Humidity
    00:00 +11°C° 0 mm 1 mps 716 mmHg 65%
    01:00 +10°C° 0 mm 1 mps 716 mmHg 66%
    02:00 +10°C° 0 mm 1 mps 716 mmHg 66%
    03:00 +9°C° 0 mm 2 mps 716 mmHg 67%
    04:00 +9°C° 0 mm 2 mps 716 mmHg 68%
    05:00 +9°C° 0 mm 2 mps 716 mmHg 69%
    06:00 +9°C° 0 mm 2 mps 716 mmHg 67%
    07:00 +9°C° 0 mm 2 mps 717 mmHg 65%
    08:00 +9°C° 0 mm 2 mps 717 mmHg 62%
    09:00 +13°C° 0 mm 2 mps 718 mmHg 52%
    10:00 +16°C° 0 mm 1 mps 718 mmHg 42%
    11:00 +20°C° 0 mm 1 mps 718 mmHg 33%
    12:00 +20°C° 0 mm 2 mps 717 mmHg 30%
    13:00 +21°C° 0 mm 2 mps 717 mmHg 28%
    14:00 +23°C° 0 mm 2 mps 716 mmHg 26%
    15:00 +21°C° 0 mm 2 mps 716 mmHg 30%
    16:00 +20°C° 0 mm 2 mps 716 mmHg 33%
    17:00 +19°C° 0 mm 2 mps 715 mmHg 36%
    18:00 +18°C° 0 mm 2 mps 716 mmHg 43%
    19:00 +16°C° 0 mm 1 mps 716 mmHg 49%
    20:00 +14°C° 0 mm 1 mps 717 mmHg 56%
    21:00 +14°C° 0 mm 1 mps 717 mmHg 58%
    22:00 +13°C° 0 mm 1 mps 717 mmHg 60%
    23:00 +13°C° 0 mm 1 mps 717 mmHg 62%

    30 June, Friday

    Time Temperature Precipitation Wind Pressure Humidity
    00:00 +12°C° 0 mm 1 mps 716 mmHg 63%
    01:00 +12°C° 0 mm 1 mps 716 mmHg 65%
    02:00 +12°C° 0 mm 1 mps 716 mmHg 66%
    03:00 +11°C° 0 mm 1 mps 716 mmHg 68%
    04:00 +11°C° 0 mm 1 mps 716 mmHg 70%
    05:00 +10°C° 0 mm 1 mps 716 mmHg 73%
    06:00 +11°C° 0 mm 1 mps 716 mmHg 73%
    07:00 +11°C° 0 mm 1 mps 717 mmHg 73%
    08:00 +11°C° 0 mm 1 mps 717 mmHg 73%
    09:00 +13°C° 0 mm 2 mps 718 mmHg 65%
    10:00 +16°C° 0 mm 2 mps 719 mmHg 57%
    11:00 +18°C° 0 mm 2 mps 719 mmHg 49%
    12:00 +19°C° 0 mm 2 mps 719 mmHg 47%
    13:00 +20°C° 0 mm 2 mps 719 mmHg 45%
    14:00 +21°C° 0 mm 3 mps 718 mmHg 43%
    15:00 +20°C° 0 mm 2 mps 718 mmHg 46%
    16:00 +20°C° 0 mm 2 mps 719 mmHg 50%
    17:00 +19°C° 0 mm 2 mps 719 mmHg 53%
    18:00 +17°C° 0 mm 2 mps 720 mmHg 61%
    19:00 +16°C° 0 mm 2 mps 720 mmHg 69%
    20:00 +14°C° 0 mm 1 mps 721 mmHg 77%
    21:00 +14°C° 0 mm 1 mps 721 mmHg 79%
    22:00 +13°C° 0 mm 1 mps 722 mmHg 81%
    23:00 +13°C° 0 mm 1 mps 722 mmHg 83%

    1 July, Saturday

    Time Temperature Precipitation Wind Pressure Humidity
    00:00 +12°C° 0 mm 1 mps 722 mmHg 84%
    01:00 +12°C° 0 mm 1 mps 722 mmHg 85%
    02:00 +12°C° 0 mm 1 mps 722 mmHg 86%
    03:00 +12°C° 0 mm 1 mps 722 mmHg 86%
    04:00 +12°C° 0 mm 1 mps 722 mmHg 87%
    05:00 +11°C° 0 mm 1 mps 722 mmHg 88%
    06:00 +12°C° 0 mm 1 mps 723 mmHg 88%
    07:00 +12°C° 0 mm 1 mps 723 mmHg 87%
    08:00 +12°C° 0 mm 1 mps 723 mmHg 87%
    09:00 +14°C° 0 mm 2 mps 724 mmHg 79%
    10:00 +15°C° 0 mm 2 mps 724 mmHg 71%
    11:00 +17°C° 0 mm 2 mps 724 mmHg 63%
    12:00 +18°C° 0 mm 2 mps 723 mmHg 60%
    13:00 +19°C° 0 mm 3 mps 722 mmHg 57%
    14:00 +19°C° 0 mm 3 mps 721 mmHg 55%
    15:00 +19°C° 0 mm 3 mps 721 mmHg 56%
    16:00 +19°C° 0 mm 3 mps 721 mmHg 57%
    17:00 +18°C° 0 mm 3 mps 721 mmHg 59%
    18:00 +17°C° 0 mm 3 mps 721 mmHg 63%
    19:00 +16°C° 0 mm 2 mps 722 mmHg 67%
    20:00 +14°C° 0 mm 2 mps 722 mmHg 71%
    21:00 +14°C° 0 mm 2 mps 722 mmHg 73%
    22:00 +13°C° 0 mm 2 mps 722 mmHg 75%
    23:00 +13°C° 0 mm 2 mps 723 mmHg 76%
    Show more